FW6131 Weather Reports


time (UTC)temp
F
wind
direction
speed
knots
gust
knots
rain 1hr
in
rain 24hr
in
rain mn
in
humidity
%
barometer
mb
20260902113042 71 273 3.5 9.6 0.00 0.22 0.00 68 1019.0
20260902111541 71 191 3.5 11.3 0.00 0.22 0.00 68 1019.2
20260902110045 69 220 2.6 9.6 0.00 0.22 0.00 71 1019.3
20260902104544 69 266 1.7 8.7 0.00 0.23 0.00 70 1019.4
20260902103042 68 193 0.0 7.8 0.00 0.23 0.00 73 1019.3
20260902101548 67 214 2.6 8.7 0.00 0.23 0.00 74 1019.3
20260902100049 66 185 0.9 9.6 0.00 0.23 0.00 75 1019.3
20260902094545 66 243 4.3 10.4 0.00 0.23 0.00 74 1019.4
20260902093049 65 0 4.3 11.3 0.00 0.23 0.00 78 1019.4
20260902091550 64 233 4.3 9.6 0.00 0.23 0.00 81 1019.5
20260902090045 63 355 2.6 13.0 0.00 0.23 0.00 82 1019.5
20260902084550 62 355 2.6 9.6 0.00 0.24 0.00 84 1019.6
20260902083046 61 355 1.7 7.8 0.00 0.24 0.00 86 1019.5
20260902081551 60 0 2.6 7.0 0.00 0.24 0.00 87 1019.5
20260902080042 60 0 0.0 4.3 0.00 0.24 0.00 89 1019.6
20260902074606 59 355 0.9 7.0 0.00 0.24 0.00 90 1019.4
20260902073043 58 355 1.7 4.3 0.00 0.24 0.00 91 1019.4
20260902071543 58 0 2.6 7.0 0.00 0.24 0.00 92 1019.5
20260902070041 57 0 0.0 3.5 0.00 0.24 0.00 94 1019.4
20260902064621 56 0 0.0 2.6 0.00 0.24 0.00 95 1019.4
20260902063101 55 355 0.0 3.5 0.00 0.24 0.00 96 1019.4
20260902061542 55 355 0.0 0.9 0.00 0.24 0.00 96 1019.4
20260902060105 0 0.0 0.0 0.00 0.24 0.00 1019.3
20260902054603 54 0 0.0 0.9 0.00 0.24 0.00 97 1019.4
20260902053043 54 0 0.0 3.5 0.00 0.24 0.00 96 1019.4
20260902051552 53 0 0.0 2.6 0.00 0.24 0.00 96 1019.3
20260902050046 53 0 0.0 2.6 0.00 0.24 0.00 96 1019.4
20260902044544 53 0 0.0 0.0 0.00 0.24 0.00 96 1019.3
20260902043103 53 0 0.0 0.0 0.00 0.24 0.00 96 1019.2
20260902041603 53 0 0.0 3.5 0.00 0.24 0.00 96 1019.3
20260902040046 53 0 0.0 4.3 0.00 0.24 0.00 96 1019.3
20260902034550 53 0 0.0 3.5 0.00 0.25 0.00 96 1019.2
20260902033041 53 0 0.0 2.6 0.00 0.25 0.00 96 1019.3
20260902031549 53 0 0.0 0.9 0.00 0.25 0.00 96 1019.4
20260902030046 53 0 0.0 3.5 0.00 0.25 0.00 96 1019.4
20260902024542 53 0 0.0 1.7 0.00 0.25 0.00 96 1019.5
20260902023052 53 0 0.0 3.5 0.00 0.25 0.00 96 1019.5
20260902021547 53 0 0.0 0.0 0.00 0.25 0.00 96 1019.6
20260902020049 53 0 0.0 0.0 0.00 0.25 0.00 95 1019.6
20260902014549 53 0 0.0 0.0 0.00 0.29 0.00 95 1019.6
20260902013053 54 0 0.0 0.0 0.00 0.29 0.00 95 1019.5
20260902011544 54 0 0.0 0.0 0.00 0.29 0.00 95 1019.4
20260902010050 54 0 0.0 4.3 0.00 0.29 0.00 95 1019.4
20260902004555 54 0 0.0 2.6 0.00 0.30 0.00 95 1019.3
20260902003134 54 0 0.0 0.9 0.00 0.30 0.00 94 1019.5
20260902001548 54 0 0.0 0.0 0.00 0.30 0.00 94 1019.3
20260902000048 54 0 0.0 0.0 0.00 0.30 0.00 93 1019.4
20260901234545 55 0 0.0 0.0 0.00 0.31 0.00 92 1019.6
20260901233043 55 0 0.0 0.0 0.00 0.31 0.00 92 1019.7
20260901231558 56 0 0.0 0.0 0.00 0.31 0.00 91 1019.7
20260901230048 57 0 0.0 0.0 0.00 0.31 0.00 91 1019.7
20260901224548 57 0 0.0 3.5 0.00 0.31 0.00 91 1019.7
20260901223048 57 0 0.0 3.5 0.00 0.31 0.00 91 1019.8
20260901221546 57 0 0.0 4.3 0.00 0.31 0.00 91 1019.8
20260901220047 57 0 0.0 3.5 0.00 0.31 0.00 91 1019.7
20260901214547 58 0 0.9 4.3 0.00 0.31 0.31 91 1019.6
20260901213048 58 0 0.0 2.6 0.00 0.31 0.31 91 1019.7
20260901211544 58 0 0.0 0.0 0.00 0.31 0.31 91 1019.7
20260901210108 58 0 0.0 2.6 0.00 0.31 0.31 91 1019.5
20260901204547 59 0 0.0 0.0 0.00 0.31 0.31 91 1019.6
20260901203044 59 0 0.0 5.2 0.00 0.31 0.31 91 1019.6
20260901201540 60 0 0.0 3.5 0.00 0.31 0.31 91 1019.6
20260901200047 60 0 0.0 2.6 0.00 0.31 0.31 91 1019.6
20260901194545 61 0 0.0 10.4 0.00 0.35 0.31 88 1019.6
20260901193105 62 355 3.5 11.3 0.00 0.35 0.31 84 1019.5
20260901191550 62 0 0.9 13.0 0.00 0.35 0.31 84 1019.3
20260901190105 62 0 3.5 7.8 0.00 0.35 0.31 85 1019.2
20260901184548 61 0 1.7 7.0 0.00 0.35 0.31 85 1019.1
20260901183047 61 0 0.0 7.8 0.00 0.35 0.31 84 1018.9
20260901181544 62 355 0.9 7.8 0.00 0.35 0.31 83 1018.7
20260901180043 62 355 0.9 7.8 0.00 0.35 0.31 81 1018.6
20260901174554 63 355 2.6 11.3 0.00 0.35 0.31 80 1018.5
20260901173044 63 355 5.2 12.2 0.00 0.35 0.31 77 1018.6
20260901171550 64 274 1.7 13.0 0.00 0.35 0.31 78 1018.4
20260901170058 64 258 6.1 16.5 0.00 0.35 0.31 76 1018.3
20260901164606 65 278 1.7 13.9 0.00 0.35 0.31 78 1018.2
20260901163104 65 0 1.7 9.6 0.00 0.35 0.31 78 1018.3
20260901161550 65 250 5.2 13.0 0.00 0.35 0.31 77 1018.3
20260901160044 65 287 2.6 14.8 0.00 0.35 0.31 77 1018.3
20260901154554 65 312 4.3 13.0 0.00 0.37 0.31 78 1018.3
20260901153048 65 0 0.9 10.4 0.00 0.37 0.31 84 1018.1
20260901151545 66 264 5.2 12.2 0.00 0.37 0.31 81 1018.1
20260901150044 67 0 3.5 11.3 0.00 0.37 0.31 82 1018.0
20260901144549 65 0 0.9 13.0 0.00 0.38 0.31 83 1018.0
20260901143048 65 0 3.5 11.3 0.00 0.38 0.31 84 1017.9
20260901141546 64 307 1.7 10.4 0.00 0.38 0.31 89 1017.9
20260901140049 63 234 3.5 13.0 0.00 0.38 0.31 89 1018.0
20260901134559 62 0 4.3 13.0 0.00 0.38 0.31 89 1018.1
20260901133100 62 17 5.2 14.8 0.00 0.38 0.31 92 1018.0
20260901131545 62 0 4.3 12.2 0.00 0.38 0.31 93 1017.9
20260901130051 61 0 3.5 14.8 0.01 0.38 0.31 93 1017.8
20260901124549 62 279 3.5 11.3 0.05 0.38 0.31 94 1017.9
20260901123044 62 257 3.5 11.3 0.08 0.38 0.31 94 1017.8
20260901121549 61 355 2.6 13.9 0.15 0.38 0.31 95 1017.7
20260901120048 61 355 5.2 10.4 0.20 0.37 0.29 94 1017.7
20260901114548 62 176 4.3 12.2 0.18 0.33 0.25 94 1017.7